Regional Weather Roundup
Issued by NWS

Home | Current Version | Previous Version | Graphics & Text | Print | Product List | Glossary On
Versions: 1 2 3 4 5 6 7 8 9 10 11 12 13 14 15 16 17 18 19 20 21 22 23 24 25 26 27 28 29 30 31 32 33 34 35 36 37 38 39 40 41 42 43 44 45 46 47 48 49 50
000
ASUS45 KBOU 280907
RWRCO

WEATHER ROUNDUP FOR COLORADO
NATIONAL WEATHER SERVICE DENVER/BOULDER CO
200 AM MST SUN DEC 28 2014

NOTE: "FAIR" INDICATES FEW OR NO CLOUDS BELOW 12000 FEET WITH NO
SIGNIFICANT WEATHER AND/OR OBSTRUCTIONS TO VISIBILITY.

COZ001>005-013-030-031-281000-
...NORTHWEST COLORADO...

CITY           SKY/WX    TMP DP  RH WIND       PRES   REMARKS
CRAIG          CLOUDY    12   5  73 CALM      30.13F
HAYDEN         CLOUDY     7   0  72 E8        30.11F WCI  -6
MEEKER         MOCLDY    12   4  70 NE5       30.13F WCI   4
MOUNT WERNER   NOT AVBL
STEAMBOAT SPGS CLOUDY     1  -3  85 CALM      30.10F
WALDEN         CLOUDY    12   1  62 S18G26    29.97F WCI  -5
$$

COZ006>008-011-281000-
...WEST CENTRAL VALLEYS...

CITY           SKY/WX    TMP DP  RH WIND       PRES   REMARKS
GRAND JUNCTION CLOUDY    18  11  74 E5        30.24F WCI  11
MONTROSE       MOCLDY    13   6  74 SE8       30.25S WCI   2
EAGLE          MOCLDY     5   1  85 CALM      30.19S
RIFLE          MOCLDY    13   7  77 CALM      30.23F
DELTA          MOCLDY    18   8  66 NE5       30.26F WCI  11
NUCLA          MOCLDY    14   7  73 SE6       30.26S WCI   5
$$

COZ017>023-064>068-281000-
...SOUTHWEST COLORADO...

CITY           SKY/WX    TMP DP  RH WIND       PRES   REMARKS
DURANGO        MOCLDY     3   1  91 N5        30.20F WCI  -6
CORTEZ         CLEAR      6   2  83 E5        30.23F WCI  -3
PAGOSA SPRINGS MOCLDY     4   1  89 CALM      30.15F
TELLURIDE      PTCLDY     7  -2  64 SE7       30.11F WCI  -4
WOLF CREEK PAS   N/A      3   1  92 MISG      30.01F
$$

COZ009-010-012-014-032>034-037-058>063-281000-
...CENTRAL COLORADO...

CITY           SKY/WX    TMP DP  RH WIND       PRES   REMARKS
ASPEN          CLOUDY     4  -2  76 SE5       30.10F WCI  -5
BUENA VISTA    PTCLDY    -4 -11  74 NW3       30.02F
COPPER MTN     CLOUDY    12 -18  24 SW10      29.93S WCI  -1
BERTHOUD PASS  NOT AVBL
COTTONWOOD PAS PTCLDY    19 -18  17 N12G23    29.94F WCI   7
GUNNISON       PTCLDY   -18 N/A N/A NE6       30.21S WCI -33
KREMMLING      CLOUDY    -2  -8  78 CALM      30.12S
LEADVILLE      CLOUDY    11 -17  27 N13       29.97S WCI  -4
MONARCH PASS   PTCLDY     0  -6  78 W51G60    30.00S WCI -32
SALIDA         PTCLDY    11  -1  59 N5        30.09F WCI   3
SUNLIGHT       CLOUDY   N/A N/A N/A CALM      30.00F
WILKERSON PASS MOCLDY     7 -11  43 W10G18    29.89F WCI  -8
$$

COZ069>075-281000-
...SAN LUIS VALLEY/SANGRE DE CRISTO MOUNTAINS...

CITY           SKY/WX    TMP DP  RH WIND       PRES   REMARKS
ALAMOSA        PTCLDY    -8 -13  78 CALM      30.15F
LA VETA PASS   NOT AVBL
SAGUACHE       MOCLDY     1  -6  71 NW12      30.14F WCI -15
$$

COZ035-036-038>040-281000-
...NORTHERN COLORADO FRONT RANGE...

CITY           SKY/WX    TMP DP  RH WIND       PRES   REMARKS
DENVER INTL AP PTCLDY    12   2  64 S14       29.95F WCI  -3
DMNS CITY PARK   N/A     14   5  69 S3        29.96F
AURORA         PTCLDY    14   2  58 SE5       29.95F WCI   7
FRONT RANGE AP PTCLDY    16   7  67 S14       29.96F WCI   1
ERIE MUNI ARPT   N/A    N/A N/A N/A CALM      29.99S
BOULDER MUN AP MOCLDY    14  10  85 NW3       29.96F
CENTENNIAL     PTCLDY    13   1  59 S7        29.94F WCI   3
BROOMFIELD     MOCLDY    18  10  73 NW3       29.95F
FORT COLLINS   PTCLDY     9   7  92 CALM      29.99F
LONGMONT       PTCLDY     6   2  84 CALM      30.00F
$$

COZ041-046-047-076>085-087-088-281000-
...PIKES PEAK/PALMER DIVIDE AND SOUTHERN FOOTHILLS...

CITY           SKY/WX    TMP DP  RH WIND       PRES   REMARKS
COLO. SPRINGS  PTCLDY    12   4  70 N7        29.98F WCI   1
A. F. ACADEMY  PTCLDY     5  -2  72 NE8       29.96F WCI  -8
ELLICOTT       NOT AVBL
FALCON         PTCLDY    10   1  66 CALM      29.96F
FORT CARSON    PTCLDY    11   6  79 NW9       29.97F WCI  -1
LIMON          PTCLDY    -1  -5  82 N3        30.00F
MONUMENT HILL  PTCLDY    18  -4  38 SW9       29.93F WCI   6
TRINIDAD       MOCLDY    11   2  67 SW5       30.02F WCI   3
$$

COZ042>045-048>051-090-091-281000-
...NORTHEAST COLORADO...

CITY           SKY/WX    TMP DP  RH WIND       PRES   REMARKS
GREELEY ARPT   PTCLDY    -8 -17  65 NW6       30.01S WCI -21
AKRON          CLEAR     10   5  80 W13       30.00F WCI  -5
BURLINGTON     PTCLDY    10   5  80 SW10      30.06F WCI  -4
WRAY           PTCLDY     8   4  83 W7        30.07F WCI  -3
STERLING       CLEAR     -2  -6  84 SW6       30.04F WCI -14
HOLYOKE        PTCLDY     1  -4  78 SW6       30.05F WCI -10
FORT MORGAN    CLEAR     -4  -8  82 W8        30.02F WCI -19
$$

COZ086-089-092>099-281000-
...SOUTHEAST COLORADO...

CITY           SKY/WX    TMP DP  RH WIND       PRES   REMARKS
PUEBLO         MOCLDY     7   3  84 SW3       30.05S
LA JUNTA       PTCLDY     9   5  84 SW6       30.07F WCI  -1
LAMAR          CLEAR      6   3  87 S6        30.08F WCI  -4
SPRINGFIELD      N/A     14  10  84 W6        30.05F WCI   5
$$


USA.gov is the U.S. government's official web portal to all federal, state and local government web resources and services.